SCP
0 0 0 0 0 0 0 0 0 0 0 0 0 0 0 0 0 0 0 0 0 0 0 0 0 0 0 0 0 0 0 0
0 0 0 0 0 0 0 0 0 0 0 0 0 0 0 0 0 0 0 0 0 0 0 0 0 0 0 0 0 0 0 0
0 0 0 0 0 0 0 0 0 0 0 0 0 0 0 0 0 0 0 0 0 0 0 0 0 0 0 0 0 0 0 0
0 0 0 0 0 0 0 0 0 0 0 0 0 0 0 0 0 0 0 0 0 0 0 0 0 0 0 0 0 0 -0 0
0 0 0 0 0 0 0 0 0 0 0 0 0 0 0 0 0 0 0 0 0 0 0 0 0 0 0 0 0 -0 -0 -0
0 0 0 0 0 0 0 0 0 0 0 0 0 0 0 0 0 0 0 0 0 0 0 0 0 0 -0 -0 -0 -0 -0 -0
0 0 0 0 0 0 0 0 0 0 0 0 0 0 0 0 0 0 0 0 0 0 0 0 0 0 0 -0 -0 -0 -0 -0
0 0 0 0 0 0 0 0 0 0 0 0 0 0 0 0 0 0 0 0 0 0 0 0 0 0 0 -0 -0 -0 -0 -0
0 0 0 0 0 0 0 0 0 0 0 0 0 0 0 0 0 0 0 0 0 0 0 0 0 0 -0 -0 -0 -0 -0 -0
0 0 0 0 0 0 0 0 0 0 0 0 0 0 0 0 0 0 0 0 0 0 0 0 0 0 -0 -0 -0 -0 -0 -0
0 0 0 0 0 0 0 0 0 0 0 0 0 0 0 0 0 0 0 0 0 0 0 0 0 0 0 -0 -0 -0 -0 -0
0 0 0 0 0 0 0 0 0 0 0 0 0 0 0 0 0 0 0 0 0 0 0 0 0 0 0 -0 -0 -0 -0 0
0 0 0 0 0 0 0 0 0 0 0 0 0 0 0 0 0 0 0 0 0 0 0 0 0 0 -0 -0 -0 -0 0 0
0 0 0 0 0 0 0 0 0 0 0 0 0 0 0 0 0 0 0 0 0 0 0 0 0 0 0 0 0 0 0 0
0 0 0 0 0 0 0 0 0 0 0 0 0 0 0 0 0 0 0 0 0 0 0 0 0 0 0 0 0 0 0 0
0 0 0 0 0 0 0 0 0 0 0 0 0 0 0 0 0 0 0 0 0 0 0 0 0 0 0 0 0 0 0 0
0 0 0 0 0 0 0 0 0 0 0 0 0 0 0 0 0 0 0 0 0 0 0 0 0 0 0 0 0 0 0 0
0 0 0 0 0 0 0 0 0 0 0 0 0 0 0 0 0 0 0 0 0 0 0 0 0 0 0 0 0 0 0 0
0 0 0 0 0 0 0 0 0 0 0 0 0 0 0 0 0 0 0 0 0 0 0 0 0 0 0 0 0 0 0 0
Wind_Speed_500mb
22 15 10 16 20 26 25 20 13 8 5 4 6 8 9 11 11 13 14 13 12 12 13 13 14 14 14 15 17 18 12 6
25 19 11 14 21 22 20 14 11 8 5 1 4 8 12 12 16 17 16 16 15 15 17 18 20 20 26 26 25 25 27 11
26 17 14 14 18 16 19 19 18 13 6 4 5 7 11 14 18 18 20 19 20 21 23 25 27 28 29 32 34 37 38 35
34 25 17 17 19 21 20 19 19 15 9 7 2 4 9 13 16 16 20 20 24 25 26 27 29 32 35 38 40 41 42 40
37 31 28 23 20 20 21 22 22 16 12 8 5 2 6 12 16 20 21 23 27 26 27 29 31 34 36 39 41 43 40 43
47 40 31 27 20 19 22 25 24 21 16 11 9 8 13 17 20 20 21 23 26 26 27 27 30 34 37 38 40 42 44 43
49 42 35 33 29 24 25 27 26 22 16 12 9 10 16 20 20 20 21 22 23 23 24 26 30 31 34 38 39 39 43 44
62 54 48 41 34 27 26 26 29 26 21 17 14 15 20 19 18 18 19 19 19 21 21 23 25 30 33 35 36 37 41 42
73 61 54 48 37 28 24 26 29 27 22 21 22 20 20 19 18 18 16 16 17 17 18 20 23 27 30 32 34 37 40 40
83 69 60 52 41 31 25 28 30 28 27 26 25 23 20 17 17 16 14 14 14 14 16 17 18 22 26 32 36 38 40 40
89 77 66 54 42 33 29 27 29 31 29 27 26 23 20 18 17 15 13 12 11 11 11 13 15 20 25 33 37 40 40 40
95 83 69 57 47 41 35 33 33 33 31 29 26 23 21 20 17 14 11 10 9 7 9 13 14 19 27 33 37 38 38 39
93 86 75 64 54 48 40 35 33 31 29 28 26 23 22 20 17 16 12 9 6 4 7 11 16 22 28 33 35 37 38 41
92 87 78 67 61 52 43 38 35 35 33 30 29 26 23 21 19 16 12 9 5 2 6 12 17 22 27 30 33 37 41 45
98 90 82 72 66 58 47 41 38 38 35 32 31 29 25 22 20 16 12 9 5 1 5 11 17 21 25 30 34 38 42 46
95 93 86 78 71 64 50 43 43 41 38 36 34 30 28 25 22 17 12 9 4 2 6 10 15 20 25 31 36 40 42 45
98 95 90 85 78 70 54 49 50 46 42 38 36 34 31 27 23 18 12 10 7 6 6 10 15 21 27 32 37 40 43 46
96 100 95 88 81 70 58 53 52 51 46 43 40 36 33 29 25 19 14 12 10 7 8 12 16 21 27 33 37 40 43 48
88 101 99 91 81 71 58 57 57 56 51 48 44 40 36 32 26 21 17 14 11 10 10 13 17 22 27 32 36 39 43 47
Wind_Direction_500mb
169 170 162 156 171 175 184 165 156 169 160 102 56 58 68 79 78 70 62 57 56 43 48 50 39 29 36 37 33 31 44 89
172 167 179 160 166 177 182 173 165 196 189 26 29 74 79 80 78 74 69 65 62 60 58 60 59 60 59 60 58 63 65 102
183 186 172 177 173 173 165 172 169 186 214 316 1 82 95 82 79 82 78 75 77 76 73 70 68 66 65 61 56 55 57 62
189 190 184 181 179 177 179 188 198 203 228 302 359 88 98 94 93 91 95 94 91 84 77 68 64 61 57 55 54 51 50 53
194 194 190 185 183 177 185 192 204 205 223 245 253 171 126 121 115 111 105 99 91 83 75 68 60 55 53 50 49 51 49 48
198 195 193 188 188 182 184 184 191 194 205 231 265 188 151 136 124 118 111 96 88 81 74 68 61 54 50 47 44 43 43 41
199 191 189 188 188 190 190 187 189 194 209 215 214 188 148 136 129 125 108 97 89 82 76 68 61 56 51 46 42 41 40 37
193 192 190 193 190 187 191 188 187 189 197 198 190 171 148 148 134 116 106 98 93 85 77 68 61 55 50 47 43 38 37 34
196 195 196 195 192 190 193 188 186 182 180 184 177 169 158 153 138 124 116 108 93 81 72 65 56 49 47 44 39 35 33 27
196 195 198 193 191 190 191 189 187 176 175 175 176 171 159 153 141 132 126 108 93 79 67 61 53 43 40 37 33 30 27 21
195 194 194 193 192 187 186 191 186 177 178 181 176 168 160 158 153 146 130 117 97 80 70 62 48 37 33 32 27 23 18 14
194 193 193 191 188 187 185 187 189 185 182 181 177 170 167 164 159 155 147 129 111 89 63 49 40 30 29 25 20 15 11 8
192 191 188 189 191 188 191 192 194 193 187 182 177 177 175 170 168 172 167 144 126 86 52 36 28 26 23 17 11 7 5 3
191 190 190 191 193 193 195 196 194 195 192 186 184 185 184 180 178 179 171 157 154 114 34 26 21 19 14 8 5 4 3 0
191 190 192 193 194 196 196 196 196 197 195 192 192 192 188 185 185 183 179 181 183 86 11 14 12 7 4 2 2 2 -0 356
192 193 194 195 196 198 198 199 198 199 199 197 194 195 193 191 191 189 192 198 207 294 338 357 359 356 357 358 359 357 354 353
196 197 197 197 198 197 198 201 201 201 202 199 197 199 197 194 194 195 202 210 232 273 318 340 347 348 353 353 355 351 350 350
201 202 202 201 200 198 202 203 202 205 203 201 202 201 199 197 198 200 211 221 240 268 301 326 335 341 348 349 349 346 348 349
207 206 205 204 203 202 203 203 205 206 204 205 205 204 200 200 202 205 215 225 242 264 289 314 325 333 343 345 344 344 347 347
Wind_Speed_850mb
22 15 10 16 20 26 25 20 13 8 5 4 6 8 9 11 11 13 14 13 12 12 13 13 14 14 14 15 17 18 12 6
25 19 11 14 21 22 20 14 11 8 5 1 4 8 12 12 16 17 16 16 15 15 17 18 20 20 26 26 25 25 27 11
26 17 14 14 18 16 19 19 18 13 6 4 5 7 11 14 18 18 20 19 20 21 23 25 27 28 29 32 34 37 38 35
34 25 17 17 19 21 20 19 19 15 9 7 2 4 9 13 16 16 20 20 24 25 26 27 29 32 35 38 40 41 42 40
37 31 28 23 20 20 21 22 22 16 12 8 5 2 6 12 16 20 21 23 27 26 27 29 31 34 36 39 41 43 40 43
47 40 31 27 20 19 22 25 24 21 16 11 9 8 13 17 20 20 21 23 26 26 27 27 30 34 37 38 40 42 44 43
49 42 35 33 29 24 25 27 26 22 16 12 9 10 16 20 20 20 21 22 23 23 24 26 30 31 34 38 39 39 43 44
62 54 48 41 34 27 26 26 29 26 21 17 14 15 20 19 18 18 19 19 19 21 21 23 25 30 33 35 36 37 41 42
73 61 54 48 37 28 24 26 29 27 22 21 22 20 20 19 18 18 16 16 17 17 18 20 23 27 30 32 34 37 40 40
83 69 60 52 41 31 25 28 30 28 27 26 25 23 20 17 17 16 14 14 14 14 16 17 18 22 26 32 36 38 40 40
89 77 66 54 42 33 29 27 29 31 29 27 26 23 20 18 17 15 13 12 11 11 11 13 15 20 25 33 37 40 40 40
95 83 69 57 47 41 35 33 33 33 31 29 26 23 21 20 17 14 11 10 9 7 9 13 14 19 27 33 37 38 38 39
93 86 75 64 54 48 40 35 33 31 29 28 26 23 22 20 17 16 12 9 6 4 7 11 16 22 28 33 35 37 38 41
92 87 78 67 61 52 43 38 35 35 33 30 29 26 23 21 19 16 12 9 5 2 6 12 17 22 27 30 33 37 41 45
98 90 82 72 66 58 47 41 38 38 35 32 31 29 25 22 20 16 12 9 5 1 5 11 17 21 25 30 34 38 42 46
95 93 86 78 71 64 50 43 43 41 38 36 34 30 28 25 22 17 12 9 4 2 6 10 15 20 25 31 36 40 42 45
98 95 90 85 78 70 54 49 50 46 42 38 36 34 31 27 23 18 12 10 7 6 6 10 15 21 27 32 37 40 43 46
96 100 95 88 81 70 58 53 52 51 46 43 40 36 33 29 25 19 14 12 10 7 8 12 16 21 27 33 37 40 43 48
88 101 99 91 81 71 58 57 57 56 51 48 44 40 36 32 26 21 17 14 11 10 10 13 17 22 27 32 36 39 43 47
Wind_Direction_850mb
169 170 162 156 171 175 184 165 156 169 160 102 56 58 68 79 78 70 62 57 56 43 48 50 39 29 36 37 33 31 44 89
172 167 179 160 166 177 182 173 165 196 189 26 29 74 79 80 78 74 69 65 62 60 58 60 59 60 59 60 58 63 65 102
183 186 172 177 173 173 165 172 169 186 214 316 1 82 95 82 79 82 78 75 77 76 73 70 68 66 65 61 56 55 57 62
189 190 184 181 179 177 179 188 198 203 228 302 359 88 98 94 93 91 95 94 91 84 77 68 64 61 57 55 54 51 50 53
194 194 190 185 183 177 185 192 204 205 223 245 253 171 126 121 115 111 105 99 91 83 75 68 60 55 53 50 49 51 49 48
198 195 193 188 188 182 184 184 191 194 205 231 265 188 151 136 124 118 111 96 88 81 74 68 61 54 50 47 44 43 43 41
199 191 189 188 188 190 190 187 189 194 209 215 214 188 148 136 129 125 108 97 89 82 76 68 61 56 51 46 42 41 40 37
193 192 190 193 190 187 191 188 187 189 197 198 190 171 148 148 134 116 106 98 93 85 77 68 61 55 50 47 43 38 37 34
196 195 196 195 192 190 193 188 186 182 180 184 177 169 158 153 138 124 116 108 93 81 72 65 56 49 47 44 39 35 33 27
196 195 198 193 191 190 191 189 187 176 175 175 176 171 159 153 141 132 126 108 93 79 67 61 53 43 40 37 33 30 27 21
195 194 194 193 192 187 186 191 186 177 178 181 176 168 160 158 153 146 130 117 97 80 70 62 48 37 33 32 27 23 18 14
194 193 193 191 188 187 185 187 189 185 182 181 177 170 167 164 159 155 147 129 111 89 63 49 40 30 29 25 20 15 11 8
192 191 188 189 191 188 191 192 194 193 187 182 177 177 175 170 168 172 167 144 126 86 52 36 28 26 23 17 11 7 5 3
191 190 190 191 193 193 195 196 194 195 192 186 184 185 184 180 178 179 171 157 154 114 34 26 21 19 14 8 5 4 3 0
191 190 192 193 194 196 196 196 196 197 195 192 192 192 188 185 185 183 179 181 183 86 11 14 12 7 4 2 2 2 -0 356
192 193 194 195 196 198 198 199 198 199 199 197 194 195 193 191 191 189 192 198 207 294 338 357 359 356 357 358 359 357 354 353
196 197 197 197 198 197 198 201 201 201 202 199 197 199 197 194 194 195 202 210 232 273 318 340 347 348 353 353 355 351 350 350
201 202 202 201 200 198 202 203 202 205 203 201 202 201 199 197 198 200 211 221 240 268 301 326 335 341 348 349 349 346 348 349
207 206 205 204 203 202 203 203 205 206 204 205 205 204 200 200 202 205 215 225 242 264 289 314 325 333 343 345 344 344 347 347